This is the latest recevied weather packets stored in our database for station/object N0FDH. If no packets are shown the sender has not sent any weather packets the latest 10 day(s).
| Time | Temp. | Humidity | Pressure | Rain* | Wind** | Luminosity | Snow |
|---|---|---|---|---|---|---|---|
| 1777863179 | 11.11° C | 52% | 1003.1 hPa | 0 mm | - | 0 W/m² | - |
| 1777862875 | 11.67° C | 48% | 1003.3 hPa | 0 mm | - | 0 W/m² | - |
| 1777862572 | 11.67° C | 44% | 1003.3 hPa | 0 mm | - | 0 W/m² | - |
| 1777862269 | 11.67° C | 45% | 1003.2 hPa | 0 mm | - | 0 W/m² | - |
| 1777861965 | 11.67° C | 46% | 1003.1 hPa | 0 mm | - | 0 W/m² | - |
| 1777861661 | 12.22° C | 45% | 1003.3 hPa | 0 mm | - | 0 W/m² | - |
| 1777861358 | 12.22° C | 44% | 1003.4 hPa | 0 mm | - | 0 W/m² | - |
| 1777861055 | 12.78° C | 45% | 1003.2 hPa | 0 mm | - | 0 W/m² | - |
| 1777860752 | 12.78° C | 43% | 1003.1 hPa | 0 mm | - | 0 W/m² | - |
| 1777860449 | 13.33° C | 44% | 1003.2 hPa | 0 mm | - | 0 W/m² | - |
| 1777860146 | 13.33° C | 41% | 1003.1 hPa | 0 mm | - | 0 W/m² | - |
| 1777859842 | 13.89° C | 41% | 1003.3 hPa | 0 mm | - | 0 W/m² | - |
| 1777859538 | 13.89° C | 41% | 1003.2 hPa | 0 mm | - | 0 W/m² | - |
| 1777859234 | 14.44° C | 41% | 1003.2 hPa | 0 mm | - | 0 W/m² | - |
| 1777858931 | 14.44° C | 40% | 1003.2 hPa | 0 mm | - | 0 W/m² | - |
| 1777858629 | 15° C | 38% | 1003.3 hPa | 0 mm | - | 0 W/m² | - |
| 1777858326 | 15° C | 35% | 1003.4 hPa | 0 mm | - | 0 W/m² | - |
| 1777858022 | 15.56° C | 37% | 1003.3 hPa | 0 mm | - | 1 W/m² | - |
| 1777857720 | 15.56° C | 35% | 1003.3 hPa | 0 mm | - | 1 W/m² | - |
| 1777857417 | 16.11° C | 35% | 1003.3 hPa | 0 mm | - | 2 W/m² | - |
| 1777857114 | 16.11° C | 33% | 1003.3 hPa | 0 mm | - | 3 W/m² | - |
| 1777856809 | 16.67° C | 33% | 1003.2 hPa | 0 mm | - | 4 W/m² | - |
| 1777856505 | 16.67° C | 32% | 1003.3 hPa | 0 mm | - | 6 W/m² | - |
| 1777856203 | 16.67° C | 32% | 1003.2 hPa | 0 mm | - | 7 W/m² | - |
| 1777855899 | 17.22° C | 32% | 1003.4 hPa | 0 mm | - | 15 W/m² | - |
* Rain latest hour (hover to see other rain measurements)
** Current wind speed in m/s (hover to see current wind gust speed)